{"data":{"norad_id":65326,"epoch":"2026-05-25T03:54:14.084928Z","epoch_age_seconds":61165,"freshness":"FRESH","line1":"1 65326U 25189D   26145.16266302  .00012126  00000+0  42077-3 0  9995","line2":"2 65326  53.1585 211.6435 0001163  79.9230 280.1902 15.30206590 42812","mean_motion":15.3020659,"eccentricity":0.0001163,"inclination_deg":53.1585,"raan_deg":211.6435,"arg_perigee_deg":79.923,"mean_anomaly_deg":280.1902,"bstar":0.00042077,"rev_number":4281,"period_min":94.104940431605,"perigee_km":474.3983503805,"apogee_km":475.99243549509,"semimajor_km":6853.3323929378,"source":"CELESTRAK","updated_at":"2026-05-25T13:38:20.758526Z"}}